"2016-05-04 00:00:00",1602651,5.112,39.18,3.091,0.528,17.13,106.0698,14.81,15.82,23.08,0,110.7,13.12,15.62,1.2
"2016-05-04 00:00:30",1602652,5.588,41.38,3.616,0.883,17.03,106.0718,14.82,15.83,22.98,0,110.7,13.12,15.62,3.4
"2016-05-04 00:01:00",1602653,6.358,45.61,4.614,0.461,16.93,106.0757,14.83,15.83,22.59,0,110.7,13.12,15.63,7.6
"2016-05-04 00:01:30",1602654,4.967,38.97,4.466,0.619,16.91,106.0802,14.84,15.83,22.11,0,110.7,13.12,15.64,1.0
"2016-05-04 00:02:00",1602655,4.644,41.8,2.887,0.477,16.91,106.0811,14.84,15.83,22.32,0,110.7,13.12,15.64,3.8
"2016-05-04 00:02:30",1602656,3.326,35.79,1.706,0.441,16.93,106.0811,14.84,15.83,22.17,0,110.7,13.12,15.64,357.8
"2016-05-04 00:03:00",1602657,4.018,34.54,4.155,0.498,16.83,106.0811,14.84,15.84,22.22,0,110.7,13.12,15.64,356.5
"2016-05-04 00:03:30",1602658,4.423,37.3,2.334,0.794,16.83,106.0816,14.84,15.86,21.98,0,110.7,13.12,15.65,359.3
"2016-05-04 00:04:00",1602659,4.453,42,1.474,0.18,16.7,106.0926,14.87,15.87,22.02,0,110.7,13.11,15.67,4.0
"2016-05-04 00:04:30",1602660,4.197,43.99,1.572,0.211,16.74,106.107,14.91,15.87,21.87,0,110.7,13.12,15.71,6.0
"2016-05-04 00:05:00",1602661,3.592,46.93,4.243,0.263,16.8,106.114,14.92,15.87,21.69,0,110.7,13.11,15.73,8.9
"2016-05-04 00:05:30",1602662,3.721,57.45,7.833,0.227,16.8,106.1149,14.93,15.9,21.8,0,110.7,13.11,15.73,19.5
"2016-05-04 00:06:00",1602663,3.759,67.46,3.135,0.233,16.86,106.1149,14.93,15.91,22.32,0,110.7,13.11,15.73,29.5
"2016-05-04 00:06:30",1602664,4.403,60.01,9.34,0.369,16.78,106.1149,14.93,15.93,22.26,0,110.7,13.11,15.73,22.0
"2016-05-04 00:07:00",1602665,4.638,66.38,1.857,0.215,16.74,106.1149,14.93,15.94,21.87,0,110.7,13.11,15.73,28.4
"2016-05-04 00:07:30",1602666,5.145,66.57,2.685,0.35,16.8,106.118,14.93,15.94,21.75,0,110.7,13.11,15.74,28.6
"2016-05-04 00:08:00",1602667,5.526,63.65,4.071,0.318,16.83,106.1357,14.98,15.94,21.8,0,110.7,13.11,15.78,25.7
"2016-05-04 00:08:30",1602668,4.839,61.34,2.866,0.408,16.83,106.1422,15,15.96,21.8,0,110.7,13.11,15.80,23.3
"2016-05-04 00:09:00",1602669,5.909,50.18,7.1,0.746,16.89,106.1464,15.01,15.96,21.7,0,110.7,13.11,15.81,12.2
"2016-05-04 00:09:30",1602670,7.048,45.11,1.985,0.351,16.97,106.1487,15.01,15.97,21.71,0,110.7,13.11,15.82,7.1
"2016-05-04 00:10:00",1602671,6.064,48.39,1.171,0.313,16.9,106.1487,15.01,16,21.64,0,110.7,13.11,15.82,10.4
"2016-05-04 00:10:30",1602672,5.688,43.55,1.962,0.236,16.97,106.1487,15.01,16,21.8,0,110.7,13.11,15.82,5.5
"2016-05-04 00:11:00",1602673,5.603,42.81,1.864,0.31,16.99,106.1487,15.01,16.01,21.54,0,110.7,13.12,15.82,4.8
"2016-05-04 00:11:30",1602674,5.644,45.95,1.799,0.16,16.91,106.1487,15.01,16,21.25,0,110.7,13.12,15.82,8.0
"2016-05-04 00:12:00",1602675,5.949,44.7,3.58,0.517,16.97,106.1487,15.01,16.01,21.2,0,110.7,13.12,15.82,6.7
"2016-05-04 00:12:30",1602676,5.81,38.36,1.792,0.691,17.04,106.1487,15.01,16.01,21.4,0,110.7,13.12,15.82,0.4
"2016-05-04 00:13:00",1602677,6.016,43.51,2.41,0.232,17.01,106.1487,15.01,16.01,21.42,0,110.7,13.12,15.82,5.5
"2016-05-04 00:13:30",1602678,5.686,45.34,1.321,0.297,17.07,106.1487,15.01,16.02,21.25,0,110.7,13.12,15.82,7.3
"2016-05-04 00:14:00",1602679,4.958,47.06,2.071,0.136,17.07,106.1487,15.01,16.02,21.24,0,110.7,13.12,15.82,9.1
"2016-05-04 00:14:30",1602680,5.215,48.04,2.704,0.344,16.94,106.1487,15.01,16.01,21.18,0,110.7,13.12,15.82,10.0
"2016-05-04 00:15:00",1602681,5.268,47.17,3.74,0.226,16.95,106.1487,15.01,16.02,21.31,0,110.7,13.12,15.82,9.2
"2016-05-04 00:15:30",1602682,5.496,48.42,2.816,0.235,16.94,106.1484,15.01,16.01,21.44,0,110.7,13.12,15.82,10.4
"2016-05-04 00:16:00",1602683,5.568,50.66,2.933,0.299,16.94,106.1472,15.01,16.02,21.52,0,110.7,13.12,15.81,12.7
"2016-05-04 00:16:30",1602684,5.707,47.35,3.093,0.218,16.95,106.1464,15.01,16.01,21.61,0,110.7,13.12,15.81,9.3
"2016-05-04 00:17:00",1602685,5.284,48.64,3.138,0.149,17,106.1402,14.99,16.03,21.52,0,110.7,13.12,15.80,10.6
"2016-05-04 00:17:30",1602686,4.777,54.61,5.011,0.17,16.96,106.1351,14.98,16,21.49,0,110.7,13.12,15.78,16.6
"2016-05-04 00:18:00",1602687,4.847,45.7,2.816,0.224,17.01,106.1306,14.97,16.02,21.61,0,110.7,13.12,15.77,7.7
"2016-05-04 00:18:30",1602688,4.475,40.62,3.237,0.29,17.05,106.1236,14.95,16,21.59,0,110.7,13.12,15.75,2.6
"2016-05-04 00:19:00",1602689,4.726,43.51,4.673,0.462,16.94,106.1239,14.95,16.01,21.66,0,110.7,13.12,15.75,5.5
"2016-05-04 00:19:30",1602690,5.56,41.04,1.002,0.328,16.93,106.1231,14.95,15.99,20.81,0,110.7,13.12,15.75,3.0
"2016-05-04 00:20:00",1602691,5.482,45.61,1.858,0.438,16.99,106.129,14.96,16.01,20.82,0,110.7,13.11,15.77,7.6
"2016-05-04 00:20:30",1602692,5.373,48.07,1.778,0.151,16.96,106.1284,14.96,16.01,20.86,0,110.7,13.11,15.77,10.1
"2016-05-04 00:21:00",1602693,6.291,44.73,1.476,0.544,17.07,106.1284,14.96,16,21.34,0,110.7,13.11,15.77,6.7
"2016-05-04 00:21:30",1602694,5.931,48.76,3.595,0.337,17.1,106.127,14.96,16.01,21.88,0,110.7,13.11,15.76,10.8
"2016-05-04 00:22:00",1602695,5.332,48.43,3.901,0.194,17.14,106.1256,14.95,16.01,22.07,0,110.7,13.11,15.76,10.4
"2016-05-04 00:22:30",1602696,5.63,44.92,2.873,0.317,17.11,106.1267,14.96,16,22.01,0,110.7,13.11,15.76,6.9
"2016-05-04 00:23:00",1602697,5.46,42.93,2.107,0.533,17.16,106.1287,14.96,16.01,22.02,0,110.7,13.11,15.77,4.9
"2016-05-04 00:23:30",1602698,6,43.64,1.817,0.779,17.09,106.1309,14.97,16.01,21.93,0,110.7,13.11,15.77,5.6
"2016-05-04 00:24:00",1602699,7.044,45.89,1.89,0.345,17.02,106.1295,14.96,16,21.1,0,110.7,13.11,15.77,7.9
"2016-05-04 00:24:30",1602700,7.544,46.72,1.508,0.197,17.07,106.1254,14.95,16.01,20.98,0,110.7,13.11,15.76,8.7
"2016-05-04 00:25:00",1602701,7.192,47.67,2.442,0.219,17.03,106.1186,14.94,16,20.78,0,110.7,13.11,15.74,9.7
"2016-05-04 00:25:30",1602702,7.072,45.41,1.803,0.203,17.11,106.1155,14.93,15.99,20.94,0,110.7,13.11,15.73,7.4
"2016-05-04 00:26:00",1602703,6.825,47.8,1.208,0.129,17.06,106.119,14.94,15.99,20.85,0,110.7,13.11,15.74,9.8
"2016-05-04 00:26:30",1602704,6.456,46.36,1.615,0.266,16.99,106.1196,14.94,15.99,20.83,0,110.7,13.11,15.74,8.4
"2016-05-04 00:27:00",1602705,6.167,42.28,2.448,0.776,17.09,106.1199,14.94,15.99,21.04,0,110.7,13.11,15.74,4.3
"2016-05-04 00:27:30",1602706,5.373,39.66,2.606,0.754,17.13,106.1187,14.94,15.98,21.25,0,110.7,13.12,15.74,1.7
"2016-05-04 00:28:00",1602707,6.376,43.52,1.418,0.355,17.13,106.1214,14.94,15.97,21.25,0,110.7,13.12,15.75,5.5
"2016-05-04 00:28:30",1602708,5.765,44.93,2.953,0.252,17.11,106.1232,14.95,15.97,21.51,0,110.7,13.12,15.75,6.9
"2016-05-04 00:29:00",1602709,6.019,47.94,1.814,0.154,17.08,106.1224,14.95,15.97,21.13,0,110.7,13.12,15.75,9.9
"2016-05-04 00:29:30",1602710,5.783,49.66,1.796,0.139,17.03,106.1196,14.94,15.95,20.92,0,110.7,13.12,15.74,11.7
"2016-05-04 00:30:00",1602711,5.781,47.12,1.82,0.154,17.13,106.1168,14.93,15.94,20.73,0,110.7,13.12,15.74,9.1
"2016-05-04 00:30:30",1602712,5.553,45.77,1.228,0.223,17.1,106.1151,14.93,15.95,20.6,0,110.7,13.12,15.73,7.8
"2016-05-04 00:31:00",1602713,4.717,46.51,1.604,0.197,17.13,106.1072,14.91,15.95,20.67,0,110.7,13.12,15.71,8.5
"2016-05-04 00:31:30",1602714,3.471,44.33,6.404,0.533,17.15,106.1041,14.9,15.92,21.18,0,110.7,13.12,15.70,6.3
"2016-05-04 00:32:00",1602715,4.363,47.33,6.74,0.482,17.1,106.0996,14.89,15.94,21.61,0,110.7,13.12,15.69,9.3
"2016-05-04 00:32:30",1602716,4.298,43.58,4.431,0.397,17.09,106.1038,14.9,15.94,21.35,0,110.7,13.12,15.70,5.6
"2016-05-04 00:33:00",1602717,3.677,39.97,1.688,0.327,17.05,106.1092,14.91,15.93,21.37,0,110.7,13.12,15.72,2.0
"2016-05-04 00:33:30",1602718,3.757,43.09,2.677,0.398,17.04,106.1148,14.93,15.93,21.13,0,110.7,13.12,15.73,5.1
"2016-05-04 00:34:00",1602719,3.759,42.99,2.746,0.45,17.08,106.1185,14.94,15.92,21.44,0,110.7,13.12,15.74,5.0
"2016-05-04 00:34:30",1602720,3.973,47.68,2.829,0.389,17.03,106.1227,14.95,15.94,21.61,0,110.7,13.12,15.75,9.7
"2016-05-04 00:35:00",1602721,5.4,46.05,3.405,0.179,17.09,106.1241,14.95,15.94,21.78,0,110.7,13.12,15.75,8.0
"2016-05-04 00:35:30",1602722,5.277,41.61,3.163,0.556,17.09,106.1244,14.95,15.94,21.82,0,110.7,13.12,15.76,3.6
"2016-05-04 00:36:00",1602723,4.679,38.57,3.359,0.617,17.15,106.1238,14.95,15.95,21.77,0,110.7,13.12,15.75,0.6
"2016-05-04 00:36:30",1602724,5.595,44.06,1.89,0.662,17.05,106.1244,14.95,15.97,21.81,0,110.7,13.12,15.76,6.1
"2016-05-04 00:37:00",1602725,5.447,42.21,2.521,0.469,17.14,106.1241,14.95,15.97,21.36,0,110.7,13.12,15.75,4.2
"2016-05-04 00:37:30",1602726,5.932,45.18,1.602,0.254,17.12,106.125,14.95,15.97,21.36,0,110.7,13.12,15.76,7.2
"2016-05-04 00:38:00",1602727,6.337,53.03,5.733,0.191,17.11,106.1247,14.95,15.97,21.89,0,110.7,13.12,15.76,15.0
"2016-05-04 00:38:30",1602728,5.747,59.93,1.924,0.386,17.08,106.125,14.95,15.97,22.96,0,110.7,13.12,15.76,21.9
"2016-05-04 00:39:00",1602729,5.726,64.3,1.426,0.24,17.08,106.1256,14.95,15.98,23.26,0,110.7,13.11,15.76,26.3
"2016-05-04 00:39:30",1602730,5.668,53.73,4.521,0.142,17.1,106.1271,14.96,15.98,22.98,0,110.7,13.11,15.76,15.7
"2016-05-04 00:40:00",1602731,5.63,53.5,4.474,0.417,17.12,106.1274,14.96,15.98,22.6,0,110.7,13.11,15.76,15.5
"2016-05-04 00:40:30",1602732,4.89,53.74,6.004,0.258,17.13,106.1292,14.96,15.99,22.07,0,110.7,13.11,15.77,15.7
"2016-05-04 00:41:00",1602733,4.524,45.15,2.205,0.246,17.17,106.128,14.96,15.98,21.64,0,110.7,13.11,15.76,7.2
"2016-05-04 00:41:30",1602734,5.166,54.21,6.149,0.437,17.18,106.128,14.96,15.97,22.36,0,110.7,13.11,15.76,16.2
"2016-05-04 00:42:00",1602735,5.564,50.43,1.223,0.149,17.17,106.1295,14.96,15.99,22.04,0,110.7,13.11,15.77,12.4
"2016-05-04 00:42:30",1602736,5.131,51.08,1.84,0.188,17.11,106.128,14.96,15.97,21.68,0,110.7,13.11,15.76,13.1
"2016-05-04 00:43:00",1602737,4.927,49.78,2.193,0.092,17.13,106.1307,14.97,15.96,21.49,0,110.7,13.11,15.77,11.8
"2016-05-04 00:43:30",1602738,4.89,52.75,1.717,0.181,17.05,106.1289,14.96,15.97,21.43,0,110.7,13.11,15.77,14.8
"2016-05-04 00:44:00",1602739,4.84,49.27,1.704,0.117,17.22,106.1317,14.97,15.97,21.06,0,110.7,13.11,15.77,11.3
"2016-05-04 00:44:30",1602740,4.604,46.92,2.863,0.153,17.01,106.128,14.96,15.97,21.13,0,110.7,13.11,15.76,8.9
"2016-05-04 00:45:00",1602741,4.149,43.53,2.832,0.342,17.12,106.1267,14.96,15.96,21.4,0,110.7,13.12,15.76,5.5
"2016-05-04 00:45:30",1602742,4.192,48.69,1.821,0.118,17.07,106.1213,14.94,15.96,21.25,0,110.7,13.12,15.75,10.7
"2016-05-04 00:46:00",1602743,4.194,48.23,1.18,0.134,17.14,106.116,14.93,15.94,21.18,0,110.7,13.12,15.73,10.2
"2016-05-04 00:46:30",1602744,4.399,49.63,1.169,0.111,17.05,106.1118,14.92,15.95,21.24,0,110.7,13.12,15.72,11.6
"2016-05-04 00:47:00",1602745,4.045,48.18,1.645,0.208,17.09,106.1075,14.91,15.95,21.1,0,110.7,13.12,15.71,10.2
"2016-05-04 00:47:30",1602746,3.922,41.64,2.12,0.225,17.1,106.105,14.9,15.94,21.39,0,110.7,13.12,15.71,3.6
"2016-05-04 00:48:00",1602747,3.879,45.6,3.83,0.167,17.03,106.1062,14.9,15.93,21.51,0,110.7,13.12,15.71,7.6
"2016-05-04 00:48:30",1602748,3.857,52.09,2.163,0.203,17.01,106.1098,14.91,15.92,21.48,0,110.7,13.12,15.72,14.1
"2016-05-04 00:49:00",1602749,4.304,50.12,1.861,0.09,17.03,106.1127,14.92,15.93,21.41,0,110.7,13.12,15.73,12.1
"2016-05-04 00:49:30",1602750,4.33,54.41,1.225,0.086,16.94,106.1092,14.91,15.93,21.2,0,110.7,13.12,15.72,16.4
"2016-05-04 00:50:00",1602751,4.549,52.03,1.639,0.192,17,106.1127,14.92,15.93,21.15,0,110.7,13.12,15.73,14.0
"2016-05-04 00:50:30",1602752,4.502,53.56,3.195,0.219,17.04,106.1127,14.92,15.92,21.56,0,110.7,13.12,15.73,15.6
"2016-05-04 00:51:00",1602753,4.242,55.25,1.432,0.276,17.1,106.1101,14.91,15.92,21.76,0,110.7,13.12,15.72,17.2
"2016-05-04 00:51:30",1602754,4.243,53.23,5.404,0.378,17.05,106.113,14.92,15.91,21.8,0,110.7,13.12,15.73,15.2
"2016-05-04 00:52:00",1602755,3.989,48.55,3.619,0.289,17.11,106.1124,14.92,15.91,21.72,0,110.7,13.12,15.72,10.5
"2016-05-04 00:52:30",1602756,3.755,47.21,2.243,0.449,17.11,106.1143,14.93,15.91,22,0,110.7,13.12,15.73,9.2
"2016-05-04 00:53:00",1602757,4.264,50.1,2.63,0.165,17.06,106.1117,14.92,15.89,22.37,0,110.7,13.12,15.72,12.1
"2016-05-04 00:53:30",1602758,4.258,54.14,2.678,0.13,16.95,106.1089,14.91,15.91,22.44,0,110.7,13.12,15.72,16.1
"2016-05-04 00:54:00",1602759,4.179,58.36,1.613,0.156,16.99,106.1081,14.91,15.9,22.46,0,110.7,13.12,15.71,20.4
"2016-05-04 00:54:30",1602760,4.121,52.43,3.011,0.088,17.05,106.1045,14.9,15.91,22.92,0,110.7,13.12,15.70,14.4
"2016-05-04 00:55:00",1602761,4.107,48.76,2.957,0.212,17.12,106.0991,14.89,15.89,22.96,0,110.7,13.11,15.69,10.8
"2016-05-04 00:55:30",1602762,4.364,47.56,2.946,0.199,17.13,106.0974,14.88,15.88,22.95,0,110.7,13.11,15.69,9.6
"2016-05-04 00:56:00",1602763,3.956,50.96,3.002,0.229,17.15,106.0989,14.89,15.88,22.66,0,110.7,13.11,15.69,13.0
"2016-05-04 00:56:30",1602764,4.085,56.04,2.499,0.105,16.97,106.089,14.86,15.88,22.61,0,110.7,13.11,15.66,18.0
"2016-05-04 00:57:00",1602765,3.818,46.16,2.514,0.169,17.19,106.0837,14.85,15.87,23.11,0,110.7,13.11,15.65,8.2
"2016-05-04 00:57:30",1602766,3.517,47.94,3.666,0.175,17.09,106.0831,14.85,15.87,23.24,0,110.7,13.11,15.65,9.9
"2016-05-04 00:58:00",1602767,3.704,52.02,2.49,0.286,17.12,106.0831,14.85,15.86,22.95,0,110.7,13.11,15.65,14.0
"2016-05-04 00:58:30",1602768,4.14,53.92,2.487,0.135,17,106.0831,14.85,15.85,22.82,0,110.7,13.11,15.65,15.9
"2016-05-04 00:59:00",1602769,4.11,53.01,2.06,0.179,17,106.0831,14.85,15.86,22.87,0,110.7,13.11,15.65,15.0
"2016-05-04 00:59:30",1602770,3.815,52,1.978,0.209,17.09,106.0831,14.85,15.86,23.01,0,110.7,13.11,15.65,14.0
"2016-05-04 01:00:00",1602771,4.23,51.2,2.218,0.124,17.11,106.0828,14.84,15.84,23.13,0,110.7,13.11,15.65,13.2
"2016-05-04 01:00:30",1602772,4.113,53.75,1.437,0.108,17.13,106.0829,14.85,15.85,23.04,0,110.7,13.11,15.65,15.8
"2016-05-04 01:01:00",1602773,4.098,58.03,1.66,0.079,16.98,106.0798,14.84,15.85,23.03,0,110.7,13.11,15.64,20.0
"2016-05-04 01:01:30",1602774,4.006,58.55,2.62,0.065,16.89,106.0755,14.83,15.83,23.04,0,110.7,13.11,15.63,20.5
"2016-05-04 01:02:00",1602775,4.108,55.51,2.239,0.143,17.1,106.0724,14.82,15.83,23.03,0,110.7,13.12,15.62,17.5
"2016-05-04 01:02:30",1602776,4.342,50.97,1.922,0.175,17.19,106.0685,14.81,15.81,23.09,0,110.7,13.12,15.61,13.0
"2016-05-04 01:03:00",1602777,4.473,46.88,1.476,0.07,17.22,106.0612,14.79,15.82,23.19,0,110.7,13.12,15.59,8.9
"2016-05-04 01:03:30",1602778,4.263,47.02,1.475,0.168,17.24,106.0507,14.76,15.81,23.15,0,110.7,13.12,15.57,9.0
"2016-05-04 01:04:00",1602779,4.399,49.32,2.418,0.154,17.16,106.0493,14.76,15.79,23.22,0,110.7,13.12,15.56,11.3
"2016-05-04 01:04:30",1602780,4.4,54.56,0.999,0.18,17.13,106.0493,14.76,15.8,23.54,0,110.7,13.12,15.56,16.6
"2016-05-04 01:05:00",1602781,3.908,53.86,2.013,0.133,17.19,106.0493,14.76,15.78,23.51,0,110.7,13.12,15.56,15.9
"2016-05-04 01:05:30",1602782,4.362,52.87,0.699,0.072,16.98,106.0493,14.76,15.79,23.66,0,110.7,13.12,15.56,14.9
"2016-05-04 01:06:00",1602783,4.724,56.88,2.074,0.268,17.15,106.0468,14.75,15.77,23.93,0,110.7,13.12,15.56,18.9
"2016-05-04 01:06:30",1602784,4.55,61.48,5.458,0.324,17.15,106.0415,14.74,15.77,24.07,0,110.7,13.12,15.54,23.5
"2016-05-04 01:07:00",1602785,5.16,57.49,4.22,0.206,17.07,106.0341,14.72,15.75,24.03,0,110.7,13.12,15.52,19.5
"2016-05-04 01:07:30",1602786,4.939,55.29,1.593,0.194,17.13,106.0262,14.7,15.74,24.16,0,110.7,13.12,15.50,17.3
"2016-05-04 01:08:00",1602787,4.93,53.09,3.883,0.316,17.11,106.0226,14.69,15.74,24.33,0,110.7,13.12,15.49,15.1
"2016-05-04 01:08:30",1602788,4.035,57.79,3.816,0.273,17.12,106.0158,14.67,15.72,24.42,0,110.7,13.12,15.48,19.8
"2016-05-04 01:09:00",1602789,3.732,67.44,4.994,0.232,17.18,106.0155,14.67,15.72,24.53,0,110.7,13.12,15.48,29.4
"2016-05-04 01:09:30",1602790,4.136,70.68,2.561,0.141,17.16,106.0155,14.67,15.71,24.5,0,110.7,13.12,15.48,32.7
"2016-05-04 01:10:00",1602791,4.078,67.34,3.509,0.261,17.17,106.0155,14.67,15.7,24.47,0,110.7,13.12,15.48,29.3
"2016-05-04 01:10:30",1602792,3.727,61.28,5.117,0.194,17.21,106.0124,14.66,15.69,24.44,0,110.7,13.12,15.47,23.3
"2016-05-04 01:11:00",1602793,3.206,67.01,4.015,0.212,17.21,106.0079,14.65,15.69,24.42,0,110.7,13.12,15.46,29.0
"2016-05-04 01:11:30",1602794,3.206,63.6,2.506,0.102,17.05,106.0048,14.65,15.67,24.44,0,110.7,13.12,15.45,25.6
"2016-05-04 01:12:00",1602795,3.431,60.61,3.061,0.063,17.01,105.9995,14.63,15.68,24.6,0,110.7,13.12,15.43,22.6
"2016-05-04 01:12:30",1602796,3.123,55.67,2.104,0.137,17.18,105.9902,14.61,15.65,24.76,0,110.7,13.12,15.41,17.7
"2016-05-04 01:13:00",1602797,3.558,49.1,6.519,0.231,17.15,105.9846,14.59,15.67,24.7,0,110.7,13.12,15.40,11.1
"2016-05-04 01:13:30",1602798,3.257,62.23,0.877,0.144,17.1,105.982,14.59,15.66,24.55,0,110.7,13.12,15.39,24.2
"2016-05-04 01:14:00",1602799,3.305,60.44,2.288,0.07,17.06,105.9817,14.59,15.64,24.61,0,110.7,13.12,15.39,22.4
"2016-05-04 01:14:30",1602800,3.226,57.17,4.036,0.163,17.17,105.9817,14.59,15.65,24.69,0,110.7,13.12,15.39,19.2
"2016-05-04 01:15:00",1602801,3.138,58.51,5.166,0.174,17.14,105.9817,14.59,15.64,24.79,0,110.7,13.12,15.39,20.5
"2016-05-04 01:15:30",1602802,3.629,69.88,1,0.087,17.21,105.9817,14.59,15.64,24.93,0,110.7,13.12,15.39,31.9
"2016-05-04 01:16:00",1602803,3.702,71.07,2.211,0.141,17.18,105.9817,14.59,15.63,25.02,0,110.7,13.12,15.39,33.1
"2016-05-04 01:16:30",1602804,3.142,66.63,2.218,0.138,17.16,105.9817,14.59,15.62,25.1,0,110.7,13.12,15.39,28.6
"2016-05-04 01:17:00",1602805,2.836,61.16,4.534,0.218,17.08,105.9817,14.59,15.63,25.11,0,110.7,13.12,15.39,23.2
"2016-05-04 01:17:30",1602806,2.15,51.53,3.454,0.234,17.28,105.9817,14.59,15.62,25.05,0,110.7,13.12,15.39,13.5
"2016-05-04 01:18:00",1602807,2.112,55.62,3.166,0.131,17.21,105.9817,14.59,15.63,25.07,0,110.7,13.12,15.39,17.6
"2016-05-04 01:18:30",1602808,2.032,55.07,2.497,0.074,17.22,105.9817,14.59,15.63,25.09,0,110.7,13.12,15.39,17.1
"2016-05-04 01:19:00",1602809,2.007,58.36,2.622,0.077,17.19,105.9817,14.59,15.62,25.07,0,110.7,13.12,15.39,20.4
"2016-05-04 01:19:30",1602810,2.28,61.35,3.457,0.202,17.14,105.9817,14.59,15.6,25.05,0,110.7,13.12,15.39,23.3
"2016-05-04 01:20:00",1602811,2.887,65.67,3.231,0.128,17.19,105.9817,14.59,15.62,25.14,0,110.7,13.13,15.39,27.7
"2016-05-04 01:20:30",1602812,2.875,66.55,1.843,0.063,17.26,105.9806,14.58,15.6,25.22,0,110.7,13.13,15.39,28.6
"2016-05-04 01:21:00",1602813,2.572,70.4,4.788,0.153,17.19,105.9801,14.58,15.63,25.25,0,110.7,13.13,15.38,32.4
"2016-05-04 01:21:30",1602814,2.407,80.9,1.577,0.148,17.3,105.9778,14.58,15.62,25.31,0,110.7,13.13,15.38,42.9
"2016-05-04 01:22:00",1602815,2.517,77.84,2.169,0.103,17.19,105.9747,14.57,15.61,25.36,0,110.7,13.13,15.37,39.8
"2016-05-04 01:22:30",1602816,2.43,69.05,3.338,0.206,17.14,105.9736,14.57,15.62,25.36,0,110.7,13.13,15.37,31.1
"2016-05-04 01:23:00",1602817,2.409,68.66,3.979,0.231,17.21,105.9727,14.56,15.6,25.35,0,110.7,13.13,15.37,30.7
"2016-05-04 01:23:30",1602818,2.462,73.49,2.722,0.126,17.24,105.9722,14.56,15.6,25.29,0,110.7,13.13,15.36,35.5
"2016-05-04 01:24:00",1602819,2.397,67.13,5.817,0.24,17.23,105.971,14.56,15.6,25.25,0,110.7,13.13,15.36,29.1
"2016-05-04 01:24:30",1602820,2.272,62.73,2.025,0.19,17.31,105.9694,14.55,15.59,25.33,0,110.7,13.13,15.36,24.7
"2016-05-04 01:25:00",1602821,2.754,67.9,3.367,0.083,17.2,105.9665,14.55,15.61,25.39,0,110.7,13.13,15.35,29.9
"2016-05-04 01:25:30",1602822,2.59,66.29,3.245,0.133,17.25,105.9618,14.53,15.6,25.36,0,110.7,13.13,15.34,28.3
"2016-05-04 01:26:00",1602823,2.497,64.48,2.886,0.104,17.26,105.9575,14.52,15.6,25.34,0,110.7,13.13,15.33,26.5
"2016-05-04 01:26:30",1602824,2.562,70.2,1.81,0.075,17.15,105.9496,14.5,15.6,25.43,0,110.7,13.13,15.31,32.2
"2016-05-04 01:27:00",1602825,2.382,66.13,2.091,0.07,17.34,105.9488,14.5,15.59,25.47,0,110.7,13.13,15.30,28.1
"2016-05-04 01:27:30",1602826,2.265,56.87,3.18,0.097,17.18,105.9482,14.5,15.6,25.43,0,110.7,13.13,15.30,18.9
"2016-05-04 01:28:00",1602827,2.122,62.67,3.277,0.078,17.26,105.9482,14.5,15.58,25.5,0,110.7,13.13,15.30,24.7
"2016-05-04 01:28:30",1602828,2.495,66.89,2.069,0.188,17.29,105.9485,14.5,15.58,25.59,0,110.6,13.13,15.30,28.9
"2016-05-04 01:29:00",1602829,2.614,69.76,2.913,0.156,17.21,105.9491,14.5,15.57,25.98,0,110.6,13.14,15.31,31.8
"2016-05-04 01:29:30",1602830,2.424,61.31,3.782,0.098,17.36,105.9494,14.5,15.56,26.01,0,110.6,13.13,15.31,23.3
"2016-05-04 01:30:00",1602831,2.192,61.12,2.452,0.149,17.27,105.9495,14.5,15.55,25.88,0,110.6,13.13,15.31,23.1
"2016-05-04 01:30:30",1602832,2.24,60.75,2.641,0.07,17.26,105.9448,14.49,15.54,25.86,0,110.6,13.13,15.29,22.8
"2016-05-04 01:31:00",1602833,2.229,56.61,2.595,0.068,17.13,105.9426,14.49,15.53,25.93,0,110.6,13.12,15.29,18.6
"2016-05-04 01:31:30",1602834,2.2,56.13,4.117,0.092,17.22,105.9387,14.48,15.53,25.92,0,110.6,13.13,15.28,18.1
"2016-05-04 01:32:00",1602835,2.207,59.2,1.482,0.104,17.24,105.9312,14.46,15.54,25.98,0,110.6,13.12,15.26,21.2
"2016-05-04 01:32:30",1602836,2.061,61.17,1.873,0.062,17.3,105.9236,14.44,15.52,26.06,0,110.6,13.12,15.24,23.2
"2016-05-04 01:33:00",1602837,2.046,57.84,3.112,0.079,17.3,105.9231,14.44,15.53,26.13,0,110.6,13.12,15.24,19.8
"2016-05-04 01:33:30",1602838,2.102,65.75,2.142,0.054,17.26,105.9237,14.44,15.52,26.13,0,110.6,13.12,15.24,27.8
"2016-05-04 01:34:00",1602839,2.151,61.86,2.452,0.338,17.36,105.924,14.44,15.52,26.07,0,110.6,13.12,15.24,23.9
"2016-05-04 01:34:30",1602840,2.8,58.64,4.013,0.138,17.32,105.9237,14.44,15.49,25.92,0,110.6,13.13,15.24,20.6
"2016-05-04 01:35:00",1602841,2.681,63.41,2.551,0.156,17.36,105.9206,14.43,15.48,25.94,0,110.6,13.12,15.23,25.4
"2016-05-04 01:35:30",1602842,2.774,66.32,2.023,0.112,17.44,105.9162,14.42,15.48,25.97,0,110.6,13.13,15.22,28.3
"2016-05-04 01:36:00",1602843,2.776,68.47,1.594,0.209,17.38,105.9078,14.4,15.47,26.01,0,110.6,13.13,15.20,30.5
"2016-05-04 01:36:30",1602844,3.001,58.4,4.141,0.139,17.39,105.8983,14.37,15.46,26.09,0,110.6,13.14,15.17,20.4
"2016-05-04 01:37:00",1602845,2.73,61,2.298,0.135,17.27,105.8976,14.37,15.45,26.23,0,110.6,13.14,15.17,23.0
"2016-05-04 01:37:30",1602846,2.368,57.53,1.283,0.051,17.28,105.8962,14.37,15.44,26.2,0,110.6,13.14,15.17,19.5
"2016-05-04 01:38:00",1602847,2.402,52.64,2.637,0.074,17.33,105.9015,14.38,15.43,26.21,0,110.6,13.14,15.18,14.6
"2016-05-04 01:38:30",1602848,2.076,53.13,3.966,0.208,17.4,105.9021,14.38,15.42,26.27,0,110.6,13.14,15.18,15.1
"2016-05-04 01:39:00",1602849,1.842,63.68,3.37,0.136,17.47,105.9035,14.39,15.42,26.27,0,110.6,13.14,15.19,25.7
"2016-05-04 01:39:30",1602850,1.777,55.52,2.34,0.134,17.44,105.9,14.38,15.41,26.31,0,110.6,13.14,15.18,17.5
"2016-05-04 01:40:00",1602851,1.681,53.61,2.059,0.047,17.39,105.8904,14.35,15.4,26.39,0,110.6,13.14,15.15,15.6
"2016-05-04 01:40:30",1602852,1.856,52.42,2.115,0.091,17.38,105.8798,14.32,15.39,26.46,0,110.6,13.14,15.13,14.4
"2016-05-04 01:41:00",1602853,2.106,52.23,1.603,0.043,17.26,105.8808,14.33,15.37,26.3,0,110.6,13.14,15.13,14.2
"2016-05-04 01:41:30",1602854,2.193,51.57,1.759,0.096,17.34,105.8809,14.33,15.35,26.26,0,110.6,13.14,15.13,13.6
"2016-05-04 01:42:00",1602855,2.249,51.18,3.329,0.121,17.35,105.8812,14.33,15.35,26.31,0,110.6,13.14,15.13,13.2
"2016-05-04 01:42:30",1602856,2.085,46.51,1.827,0.14,17.47,105.879,14.32,15.34,26.37,0,110.6,13.14,15.12,8.5
"2016-05-04 01:43:00",1602857,2.027,52.85,2.404,0.11,17.33,105.8694,14.3,15.33,26.45,0,110.6,13.14,15.10,14.8
"2016-05-04 01:43:30",1602858,2.016,49.78,4.087,0.135,17.37,105.8587,14.27,15.31,26.44,0,110.6,13.14,15.07,11.8
"2016-05-04 01:44:00",1602859,1.839,47.36,2.521,0.069,17.42,105.8488,14.25,15.31,26.25,0,110.6,13.14,15.05,9.4
"2016-05-04 01:44:30",1602860,2.092,47.16,1.947,0.138,17.52,105.8485,14.24,15.29,26.22,0,110.6,13.14,15.05,9.2
"2016-05-04 01:45:00",1602861,2.069,53.98,3.481,0.092,17.45,105.8485,14.24,15.28,26.36,0,110.6,13.14,15.05,16.0
"2016-05-04 01:45:30",1602862,2.526,63.46,8.19,1.229,19.35,105.8426,14.23,15.42,26.58,0,110.6,13.09,15.03,25.5
"2016-05-04 01:46:00",1602863,3.487,69.83,7.758,1.382,20.99,105.8319,14.2,15.49,26.77,0,110.6,13.09,15.00,31.8
"2016-05-04 01:46:30",1602864,3.555,72.76,7.34,1.425,20.55,105.8184,14.17,15.43,26.78,0,110.6,13.09,14.97,34.8
"2016-05-04 01:47:00",1602865,2.649,67.67,8.55,1.278,18.26,105.8147,14.16,15.33,26.77,0,110.6,13.09,14.96,29.7
"2016-05-04 01:47:30",1602866,2.537,54.13,4.28,0.448,16.23,105.8147,14.16,15.22,26.6,0,110.6,13.13,14.96,16.1
"2016-05-04 01:48:00",1602867,2.268,55.36,2.493,0.104,16.07,105.813,14.15,15.2,26.6,0,110.6,13.13,14.96,17.4